CAPE
652 1814 1412 1587 1501 1414 1451 1650 1818 1892 1947 1987 2014 2072 2174 2326 2346 2343 2451 2498 2423 2193 1897 1816 1821 1655 1644 1738 1695 1663 1630 1489 1392 1350 1060 489 506 557 393 225 204 163 300
1016 1770 1387 1540 1501 1419 1538 1745 1909 2046 2163 2183 2117 2133 2227 2332 2323 2397 2409 2509 2432 2170 1855 1899 1791 1849 1783 1589 1765 1454 1189 1027 927 821 703 702 587 337 125 141 150 121 223
1377 1864 1726 1433 1489 1497 1676 1910 2146 2365 2427 2314 2249 2243 2327 2372 2409 2399 2463 2592 2466 2194 1852 1867 1827 1853 1755 1572 1597 1247 870 740 756 659 826 335 523 455 260 118 154 160 255
1778 2082 1819 1411 1461 1553 1677 1952 2254 2542 2546 2389 2329 2341 2381 2448 2476 2465 2475 2472 2571 2370 1876 1777 1793 1909 1549 1415 1325 1341 1216 1139 985 881 636 500 308 429 93 190 183 187 235
1915 2144 2117 1442 1440 1575 1666 1945 2263 2485 2385 2305 2276 2393 2457 2528 2546 2504 2307 2250 2478 2476 1978 1976 1908 1614 1340 1090 1028 1000 884 803 1008 628 433 571 463 524 227 321 243 197 362
1836 2049 2011 1467 1452 1629 1737 1960 2264 2309 2195 2101 2176 2404 2542 2590 2598 2403 2139 2232 2504 2545 2551 2316 1844 1335 992 947 1042 1024 892 846 731 706 345 684 651 485 418 318 355 290 369
1653 2357 2412 1516 1509 1733 1907 1984 2075 2083 2052 1991 2165 2326 2472 2560 2492 2196 2028 2153 2397 2573 2683 2435 1801 1154 980 956 963 840 767 796 812 571 641 831 690 591 357 345 416 656 600
1754 2234 2894 1607 1568 1691 1838 1846 1779 1819 1882 1927 2050 2174 2358 2380 2165 1990 1938 1994 2194 2344 2202 1845 1350 1080 930 852 757 597 574 520 806 708 621 890 602 664 626 544 700 657 478
2043 2378 3019 2407 1962 1596 1616 1652 1632 1607 1682 1840 1976 2052 2164 2084 1811 1755 1796 1904 2063 1986 1772 1419 1088 884 862 755 636 630 534 461 628 345 578 740 822 827 645 535 446 419 389
2374 2642 2771 2821 2568 2412 2193 1574 1598 1540 1498 1641 1850 1955 1982 1836 1577 1509 1566 1701 1875 1735 1448 1191 852 670 658 564 506 420 323 366 771 292 643 500 709 773 487 387 321 199 271
2257 2611 2768 2910 2774 2698 2521 2180 1552 1502 1459 1526 1718 1874 1946 1930 1828 1693 1415 1540 1651 1404 1174 969 642 467 413 323 295 332 296 520 444 621 504 698 1111 881 513 363 425 306 206
1690 2241 2553 2823 2777 2591 2013 2364 2364 2094 1954 1922 1914 2184 2267 1932 1921 1533 1244 1233 1306 1102 973 789 532 317 286 568 564 219 649 709 643 436 454 526 1187 939 568 354 329 235 180
482 1750 1998 2516 2647 2481 2099 2078 2249 2054 2093 2127 2154 2312 2289 2240 2575 1777 1842 1584 1470 1063 1230 894 855 733 525 639 479 367 394 976 448 483 373 432 738 717 323 246 180 117 149
17 1245 1610 1787 2398 2403 1932 2014 2114 2094 2216 2306 2108 3219 3068 3049 3090 2572 2025 1613 1252 1246 1128 1139 1055 967 938 1022 908 513 590 628 468 617 510 232 321 422 157 200 221 171 107
0 589 1322 1661 1941 2184 2181 1908 2248 2214 2213 2537 2358 3263 3098 2686 2943 2850 2518 1718 1330 1291 1066 1344 1217 1119 1348 1148 956 612 531 601 1039 795 800 157 122 222 208 164 247 304 176
0 0 696 1369 1698 1957 2045 2365 2584 2423 2210 2509 2769 2675 3361 2895 3412 2479 2733 2194 1427 1205 1210 1474 1339 1235 1243 1212 1156 1118 817 533 649 504 393 221 33 109 168 286 372 359 205
0 0 0 557 1441 1922 1965 1999 2220 2137 2421 2620 2821 3464 3321 2987 3409 3070 2741 2499 2025 1626 2209 1703 1795 1471 1305 1235 1345 1147 748 796 737 547 424 147 97 29 58 292 378 501 230
0 0 0 0 1014 1880 2040 1955 1903 1847 2298 2455 2951 3179 3517 2646 3165 3340 2509 2804 2282 2184 1582 1791 1705 1397 1343 1363 1265 965 932 707 814 646 374 225 104 80 41 76 159 313 186
0 0 0 0 0 968 2464 2245 2567 2442 2179 2357 2777 3020 3651 3259 2658 3073 2606 2881 3183 2479 1916 1844 1916 2022 1670 1345 1346 1134 1078 666 741 363 388 135 75 78 86 40 29 53 114
0 0 0 0 0 0 214 2230 2239 2158 2210 2477 2647 2718 3239 3628 2865 2736 2786 2921 2553 2611 1977 1932 2007 1907 1934 1481 874 792 1108 1124 1009 670 303 136 26 158 111 107 47 71 45
0 0 0 0 0 0 0 0 1090 1558 1939 2617 2696 2944 2970 3310 3024 2505 2883 2768 2528 2597 2182 1884 2332 1864 1781 1621 1460 1389 1087 961 823 675 742 398 107 187 78 77 94 221 59
0 0 0 0 0 0 0 0 5 671 1622 2162 2646 2868 3186 3173 3398 2926 2728 2359 2613 2224 2528 1997 1977 1575 1869 1634 1323 1270 804 553 693 766 510 480 693 310 285 316 218 169 160
0 0 0 0 1 1 0 0 2 45 1390 1980 2323 2641 3062 3201 3347 3165 2955 2907 2682 2915 2480 2252 1771 1098 1000 961 1434 803 338 197 471 573 669 404 516 567 242 82 480 585 174
0 0 0 0 0 1 21 153 207 410 314 1515 2133 2298 2623 3217 3206 3102 3031 3002 3022 2570 2660 2484 2016 1038 728 502 629 1005 1033 623 794 798 590 507 481 423 411 298 471 489 245
0 0 0 0 0 0 0 18 213 1234 936 765 2048 2403 2682 2714 2636 2480 2621 2546 2175 2026 2387 1843 1378 963 592 387 272 447 599 1077 1343 768 915 436 154 294 449 524 402 455 243
0 0 0 0 2 2 1 0 0 46 1868 1455 1686 2355 2328 2598 2568 2539 2177 1874 2199 1914 1826 1357 828 942 734 601 386 454 393 478 603 759 1029 857 189 242 168 288 378 320 278
CIN
-32 -279 -466 -401 -362 -312 -258 -181 -144 -115 -84 -66 -64 -45 -24 -10 -2 0 0 0 0 0 0 0 -1 -2 -2 -1 -2 -10 -13 -18 -18 -9 -19 -69 -30 -16 -30 -26 -16 -20 -6
-40 -261 -476 -399 -358 -321 -245 -173 -123 -93 -62 -48 -55 -36 -23 -11 -4 0 0 0 0 0 0 0 -1 0 -1 -6 -4 -15 -31 -42 -48 -46 -43 -8 -8 -3 -25 -10 -20 -21 -6
-57 -202 -367 -430 -372 -319 -234 -146 -95 -49 -41 -41 -45 -33 -19 -11 -2 0 0 0 0 0 -1 0 0 0 -4 -12 -9 -22 -46 -63 -67 -75 -45 -13 0 0 -22 -62 -3 -3 -5
-67 -180 -265 -435 -378 -310 -249 -157 -86 -40 -32 -37 -41 -33 -23 -14 -3 0 -1 -2 -1 0 -3 -2 0 0 -11 -17 -19 -12 -20 -26 -45 -61 -26 -1 0 -3 -34 -25 -4 -2 -3
-74 -141 -179 -409 -383 -311 -255 -170 -90 -48 -43 -40 -40 -28 -20 -13 -2 0 -6 -6 -2 0 -1 0 -1 -13 -27 -40 -39 -36 -45 -59 -67 -72 -4 -5 0 0 -22 -3 0 -1 -4
-67 -96 -212 -381 -364 -308 -246 -169 -99 -76 -63 -57 -46 -28 -18 -11 -4 -8 -24 -14 -1 0 0 0 -3 -32 -56 -50 -35 -34 -52 -81 -107 -6 -38 -8 -1 -8 -9 -26 -12 -3 -10
-78 -71 -229 -375 -332 -267 -203 -159 -127 -115 -114 -81 -51 -34 -21 -13 -11 -26 -39 -25 -3 -1 0 0 -9 -45 -56 -48 -39 -53 -71 -99 -17 -24 -11 -2 -2 -3 -8 -6 -1 -2 -1
-83 -96 -141 -345 -321 -269 -217 -178 -170 -139 -117 -87 -63 -44 -25 -20 -31 -42 -51 -38 -13 -4 -5 -15 -43 -51 -57 -54 -61 -71 -73 -132 -19 -3 -18 -3 -18 -7 -2 0 -1 0 -1
-117 -110 -97 -187 -239 -293 -236 -203 -178 -165 -135 -84 -49 -43 -40 -41 -49 -54 -53 -38 -19 -17 -23 -45 -61 -66 -56 -61 -53 -48 -56 -118 -109 -2 -50 -1 -7 -4 -2 -2 -2 -2 -1
-111 -93 -83 -106 -138 -126 -118 -205 -180 -171 -144 -95 -43 -32 -30 -35 -56 -73 -73 -52 -28 -26 -41 -57 -76 -69 -69 -52 -53 -57 -74 -136 -24 -95 -41 -58 -23 -5 -14 0 0 -7 -6
-103 -86 -81 -73 -87 -86 -68 -96 -175 -163 -152 -109 -46 -19 -18 -1 -5 -20 -45 -63 -44 -51 -68 -75 -93 -81 -71 -57 -55 -59 -78 -2 -8 -35 -3 -65 -13 0 0 0 0 -4 -6
-79 -90 -79 -68 -72 -94 -113 -56 -37 -48 -58 -40 -15 0 0 0 0 -1 -24 -74 -63 -78 -95 -101 -114 -99 -82 -2 -18 -59 -21 -4 -13 -5 -120 -50 -4 0 -1 -9 -2 -5 -4
-81 -58 -105 -65 -84 -98 -118 -99 -74 -57 -49 -35 -17 -1 0 0 -1 0 -1 -7 -11 -69 -30 -70 -55 -37 -25 -9 -5 -8 -2 -10 -1 -5 -87 -81 -12 -3 -4 -3 -3 -7 -2
-59 -36 -63 -87 -68 -90 -118 -126 -112 -59 -44 -32 -33 0 0 0 -1 0 0 -1 -25 -32 -28 -27 -24 -22 -8 -9 -12 0 0 -3 -29 -2 -19 -77 -33 -1 -18 0 -4 -1 0
0 -46 -28 -50 -74 -84 -87 -113 -89 -73 -58 -28 -26 -1 0 -1 0 0 0 -4 -15 -6 -19 -5 -3 -10 -1 -1 -7 0 0 0 -9 0 -23 -86 -63 -34 -12 -3 0 0 -1
0 0 -6 -16 -42 -40 -77 -39 -46 -55 -72 -32 -14 -16 -2 -2 0 0 0 0 -6 -6 -5 -1 0 -1 -1 -16 -11 -5 -6 -8 -6 0 -3 -50 -73 -59 -41 -9 -1 -2 0
0 0 0 -18 -6 -5 -33 -39 -26 -53 -40 -33 -23 -2 -18 -9 0 0 0 0 0 -3 0 0 0 0 -1 0 0 -4 -4 -5 -9 0 -1 -8 -33 -36 -32 -19 -8 0 -6
0 0 0 0 -2 -5 -1 -22 -34 -37 -21 -20 -22 -6 -9 -63 -3 0 -7 0 0 0 -8 -1 0 -1 0 0 0 -7 -4 -4 -9 -4 0 -2 -11 -7 -21 -17 -25 -9 -7
0 0 0 0 0 -3 0 -1 0 -3 -9 -3 -3 -8 0 -18 -48 0 -14 0 0 0 -2 -2 -1 0 -2 0 -2 -9 -2 -2 -14 -9 -2 -2 -4 -34 -55 -46 -52 -38 -18
0 0 0 0 0 0 -104 0 0 0 -6 -1 -3 -5 0 0 -47 -44 -19 0 0 -2 -7 0 0 0 -1 -2 0 -12 -19 -4 -9 -17 -2 -3 -25 -7 -26 -46 -45 -8 -19
0 0 0 0 0 0 0 -1 -6 -8 -8 0 0 0 0 0 -23 -56 -16 -4 -7 0 -5 -10 0 -2 0 0 -1 -18 -13 -20 -10 -6 -5 -7 -6 -7 -9 -44 -23 -2 -9
0 0 0 0 0 0 0 0 -15 -12 0 0 0 0 0 0 0 -30 -23 -42 -12 -13 0 -2 -3 -8 -2 -1 0 -2 0 -7 -2 -1 -2 -3 0 -2 -1 0 -9 -12 -2
0 0 0 0 0 0 0 0 -25 -81 0 0 0 0 0 0 0 0 -4 -1 -10 0 0 -1 -2 -25 -8 -4 0 -1 -1 -22 -2 0 -3 -4 -4 -2 -10 -14 0 0 -4
0 0 0 0 0 0 -12 -4 -15 -2 -15 0 0 0 0 0 0 0 0 0 0 0 0 0 0 -16 -15 -23 0 -2 -7 -2 0 0 -1 -15 -5 -2 -7 0 0 -1 0
0 0 0 0 0 0 0 -164 -62 0 -1 -20 0 0 0 0 -1 -3 -1 -1 -4 -4 0 0 -2 -41 -91 -214 -4 -2 -1 -2 0 -5 -2 -4 -23 -17 -6 0 -1 0 0
0 0 0 0 -2 0 0 0 0 -214 0 0 0 0 0 0 0 0 -2 -12 -1 -1 -1 -1 0 -3 -35 -57 -10 -1 -2 -1 0 -1 -2 -5 -8 -44 -59 -9 -4 -1 0
Wind_Speed
31 37 33 29 22 20 18 17 16 15 14 13 13 12 13 14 13 14 15 16 16 17 21 23 25 28 29 30 32 33 33 31 30 34 38 39 38 40 43 43 37 34 20
33 37 27 29 25 21 21 20 18 14 14 15 16 13 14 14 15 15 16 16 16 20 23 24 28 28 30 32 35 35 35 32 29 32 34 36 35 37 41 45 27 24 17
30 28 27 25 24 21 23 22 20 16 17 19 19 18 17 16 17 17 17 18 18 21 24 26 29 29 30 34 37 37 35 32 28 29 28 31 27 30 41 36 23 19 14
32 34 29 24 24 23 24 25 24 19 17 19 20 20 20 19 19 20 19 20 20 22 25 26 29 32 33 33 36 37 36 34 30 27 25 24 31 31 nan 34 18 16 13
30 33 31 27 21 23 25 25 27 23 22 20 22 22 21 20 20 21 21 22 23 24 26 28 30 33 34 34 35 37 34 33 27 25 21 29 27 29 35 38 33 19 18
30 31 41 28 23 24 24 26 27 29 26 27 26 26 26 23 23 23 23 24 26 26 27 30 32 33 35 35 36 37 35 31 22 17 20 29 24 27 31 35 20 17 21
31 35 38 34 27 28 28 26 25 28 32 32 32 30 29 28 26 26 26 27 28 28 30 33 32 33 35 35 36 37 35 26 18 16 27 27 28 27 30 30 24 26 19
30 34 40 38 34 31 31 30 27 27 28 30 33 33 32 31 29 29 28 29 31 32 33 34 34 33 34 35 34 35 31 24 20 26 26 29 28 31 29 26 24 27 29
29 32 38 39 38 35 30 29 29 30 31 30 30 31 33 33 32 31 31 32 32 34 34 34 34 34 33 34 33 32 30 20 12 24 30 31 29 31 27 32 33 28 20
34 36 36 38 42 40 34 28 28 28 29 31 31 31 31 33 33 33 33 34 35 35 35 34 34 34 32 32 31 30 28 21 14 11 28 21 35 29 27 25 23 18 18
33 36 37 39 41 42 38 34 30 29 29 32 32 32 31 28 31 34 30 40 35 36 35 35 34 35 31 30 27 29 28 26 14 22 25 29 31 27 25 24 23 17 18
35 36 38 39 40 41 42 43 33 29 27 29 30 32 27 26 30 28 32 34 33 35 34 34 35 36 29 29 27 24 24 25 20 20 26 29 32 30 27 25 20 21 22
32 39 39 41 41 41 43 44 40 34 30 30 30 33 32 27 29 25 29 30 30 32 31 31 33 30 28 24 28 26 23 25 23 21 27 34 31 26 26 15 14 14 16
nan 34 39 37 42 41 44 45 45 41 36 32 31 31 30 27 30 28 25 25 26 33 30 31 30 31 30 21 29 26 21 20 23 24 29 33 30 28 27 12 11 11 13
nan 36 37 40 39 42 41 45 45 42 40 33 32 34 29 31 28 28 27 30 27 29 29 33 29 30 29 25 24 23 23 19 26 20 25 32 34 24 24 17 7 18 12
nan nan 37 37 36 39 42 40 46 43 42 33 30 30 31 30 31 29 29 31 31 29 30 29 28 30 28 25 26 23 22 21 22 23 23 28 nan 26 18 13 6 16 16
nan nan nan 36 37 38 38 39 42 44 42 41 31 32 36 30 29 29 30 30 31 32 32 30 29 28 27 27 25 26 21 21 22 23 23 28 nan nan nan 8 10 14 16
nan nan nan nan 40 40 38 40 42 42 45 45 38 31 34 36 25 30 32 33 34 34 33 32 31 33 30 26 22 28 22 22 24 24 21 23 21 nan nan nan 15 18 20
nan nan nan nan nan 43 41 41 43 43 43 44 41 34 32 29 29 31 33 35 38 40 35 35 35 36 37 27 28 28 24 24 27 24 21 23 nan nan nan nan nan nan 22
nan nan nan nan nan nan 46 45 45 45 45 44 42 39 33 37 36 33 34 39 38 47 44 38 41 43 46 37 31 33 28 28 28 25 21 23 nan 23 22 20 nan nan nan
nan nan nan nan nan nan nan nan 46 44 45 45 45 37 36 43 37 38 34 37 44 42 41 39 41 45 47 42 39 39 33 32 27 27 27 21 20 23 nan nan nan 23 nan
nan nan nan nan nan nan nan nan nan 49 47 45 46 44 38 38 41 39 40 42 45 47 43 43 48 50 45 46 45 44 36 33 25 25 27 30 24 20 21 18 18 23 26
nan nan nan nan nan nan nan nan nan nan 48 47 45 44 42 40 39 38 38 45 44 45 50 49 51 57 49 50 41 53 44 34 33 29 27 32 26 21 19 nan 18 19 22
nan nan nan nan nan nan nan 53 48 46 43 44 42 43 43 41 36 36 38 44 46 53 54 55 56 55 54 50 54 46 40 35 36 34 30 28 23 20 21 17 20 19 21
nan nan nan nan nan nan nan nan 52 44 42 41 44 43 43 43 38 38 41 38 47 52 56 58 62 54 52 53 45 47 43 40 41 32 30 35 26 21 21 20 18 20 22
nan nan nan nan nan nan nan nan nan nan 41 42 41 45 45 46 43 38 41 45 48 50 56 59 65 52 53 52 53 47 52 49 29 28 31 27 28 23 21 21 21 21 20
Wind_Direction
290 299 303 300 286 284 279 274 279 292 300 295 294 302 305 312 314 322 329 326 324 332 336 339 341 340 337 332 325 324 318 308 295 286 277 284 280 282 283 264 282 274 250
292 301 314 307 294 293 287 278 275 287 293 297 295 303 306 315 316 320 325 324 323 332 335 337 337 337 335 330 326 326 325 313 294 287 282 289 285 286 293 272 258 247 256
303 315 332 327 306 293 291 282 276 286 293 299 299 305 308 314 316 315 320 322 320 325 328 332 333 330 329 329 328 328 327 317 307 303 310 303 292 296 298 280 269 246 262
310 319 336 338 316 296 287 288 282 287 292 298 300 303 305 308 310 313 317 319 318 321 322 325 327 327 329 329 329 329 329 325 320 320 320 303 294 295 nan 275 284 264 250
310 316 323 330 323 300 291 290 290 285 281 289 295 299 301 304 308 311 314 316 315 319 324 323 323 324 325 326 328 331 333 334 336 332 303 302 288 294 298 288 280 255 245
309 315 307 315 321 315 300 288 290 292 286 290 293 296 299 302 306 307 313 314 311 313 319 320 320 320 322 326 328 335 340 348 337 331 275 294 293 300 297 289 278 242 245
306 299 310 311 317 320 319 304 294 291 294 297 296 297 300 300 302 304 309 310 309 311 311 310 316 319 321 324 328 337 348 351 338 333 294 291 295 295 288 281 280 242 262
301 306 303 310 315 315 316 317 313 305 292 293 296 297 297 297 299 302 305 306 306 306 306 309 313 315 319 322 327 336 352 357 344 311 309 305 306 308 298 294 271 277 276
297 303 302 313 313 309 309 313 314 312 308 302 295 292 294 297 296 295 298 301 302 302 303 308 310 311 316 319 324 333 348 360 341 318 305 313 309 312 299 295 286 284 251
296 296 297 303 307 308 308 303 302 304 304 303 298 296 289 288 292 294 296 298 299 298 301 305 307 308 313 316 322 327 343 359 328 326 299 290 300 306 302 305 291 279 258
285 291 294 297 298 301 304 303 298 298 297 296 298 295 297 307 306 305 304 295 296 297 300 304 307 305 311 308 315 325 344 351 327 307 308 306 301 306 309 298 294 266 270
285 288 290 293 293 296 296 298 301 302 302 304 306 306 306 311 305 309 304 297 298 297 302 306 306 304 316 312 314 321 338 342 335 312 301 307 306 310 303 308 306 292 269
269 284 288 288 288 291 290 291 290 293 294 298 309 309 309 306 302 300 294 297 296 297 299 306 306 311 321 309 310 319 340 331 327 311 307 309 309 312 287 294 306 318 301
nan 275 280 279 282 286 284 287 291 295 296 295 302 310 304 299 298 301 298 296 297 295 302 305 304 313 318 315 303 317 328 327 314 302 307 300 306 305 293 266 306 303 312
nan 262 272 278 277 278 281 282 286 291 290 294 298 303 304 303 297 301 301 298 293 291 296 299 305 309 312 313 297 309 318 328 315 302 306 311 305 302 301 284 314 343 327
nan nan 266 273 273 272 274 276 278 280 286 286 291 296 301 299 300 301 297 296 296 293 295 295 299 301 303 299 295 296 299 309 314 311 308 314 nan 309 308 323 323 346 326
nan nan nan 256 271 272 271 272 272 278 282 286 286 292 297 303 297 297 295 296 296 293 293 293 296 296 299 303 304 290 293 299 302 312 305 316 nan nan nan 321 318 325 333
nan nan nan nan 258 273 266 265 268 271 276 278 282 283 296 297 290 293 291 291 293 294 296 295 292 293 296 294 291 287 289 290 293 305 316 312 307 nan nan nan 285 299 313
nan nan nan nan nan 243 267 262 263 266 267 272 276 283 288 286 292 286 286 284 286 285 290 295 296 293 293 291 289 282 275 279 285 294 314 309 nan nan nan nan nan nan 307
nan nan nan nan nan nan 246 256 261 261 266 271 279 280 286 279 292 289 286 286 287 281 284 291 296 295 292 297 294 283 276 265 272 281 290 295 nan 303 296 285 nan nan nan
nan nan nan nan nan nan nan nan 259 262 265 269 270 277 279 274 281 280 278 281 284 285 291 285 288 291 287 287 286 279 268 260 260 276 281 285 293 299 nan nan nan 274 nan
nan nan nan nan nan nan nan nan nan 259 262 263 267 272 269 274 277 280 281 279 284 286 292 286 290 281 286 289 288 278 278 266 267 268 272 287 291 282 292 303 281 285 277
nan nan nan nan nan nan nan nan nan nan 263 264 267 269 278 280 275 274 279 277 283 282 283 284 283 283 282 281 285 279 273 279 264 267 271 275 276 273 288 nan 302 293 282
nan nan nan nan nan nan nan 238 245 248 252 265 267 267 266 270 272 264 263 275 277 269 273 279 283 285 280 283 284 268 268 265 264 259 272 266 265 272 276 285 289 292 304
nan nan nan nan nan nan nan nan 237 240 253 250 256 263 264 265 265 258 256 264 269 269 271 271 279 286 286 272 266 266 265 269 261 245 258 255 263 265 272 276 290 298 297
nan nan nan nan nan nan nan nan nan nan 233 249 252 254 253 254 253 255 257 252 265 268 269 270 269 274 265 273 277 278 269 269 255 243 244 256 256 268 270 271 275 290 298